Weather reports worldwide

Advertisment
Page/Page A., United States of America (72371): temperature & dewpoint: 30.05.2020 11:00:00 - 05.06.2020 11:00:00 (MST)Page/Page A., United States of America (72371): wind speed & gusts: 30.05.2020 11:00:00 - 05.06.2020 11:00:00 (MST)Page/Page A., United States of America (72371): wind direction: 30.05.2020 11:00:00 - 05.06.2020 11:00:00 (MST)Page/Page A., United States of America (72371): reduced air pressure: 30.05.2020 11:00:00 - 05.06.2020 11:00:00 (MST)Page/Page A., United States of America (72371): visibility: 30.05.2020 11:00:00 - 05.06.2020 11:00:00 (MST)Page/Page A., United States of America (72371): precipitation: 30.05.2020 11:00:00 - 05.06.2020 11:00:00 (MST)
Date & Time tt [°C] td [°C] ff [km/h] ff [kn] fx [km/h] fx [kn] dd ppp [hPa] vv [km] rr [mm]
05.06.2020 11:00:00 32,8 0,6 5 3 - - - 1004,9 16 0,0
05.06.2020 10:00:00 31,1 -1,1 11 6 - - - 1005,0 16 -
05.06.2020 09:00:00 29,4 0,0 8 4 - - NNW 1005,4 16 -
05.06.2020 08:00:00 27,2 1,7 8 4 - - NNW 1005,7 16 -
05.06.2020 07:00:00 26,1 1,1 5 3 - - WSW 1005,4 16 -
05.06.2020 06:00:00 23,3 0,6 0 0 - - N 1005,6 16 -
05.06.2020 05:00:00 22,8 -0,6 5 3 - - SSE 1005,3 16 0,0
05.06.2020 04:00:00 23,9 0,0 0 0 - - N 1004,5 16 -
05.06.2020 03:00:00 23,9 -0,6 5 3 - - WSW 1004,3 16 -
05.06.2020 02:00:00 27,2 -1,1 8 4 - - SW 1003,9 16 -
05.06.2020 01:00:00 27,2 -1,1 9 5 - - SW 1004,2 16 -
05.06.2020 00:00:00 27,8 -0,6 5 3 - - W 1004,1 16 -
04.06.2020 23:00:00 27,8 -0,6 0 0 - - N 1004,0 16 0,0
04.06.2020 22:00:00 31,1 -2,2 0 0 - - N 1003,9 16 -
04.06.2020 21:00:00 33,3 -3,3 5 3 - - SW 1003,1 16 -
04.06.2020 20:00:00 34,4 -3,9 0 0 - - N 1002,6 16 -
04.06.2020 19:00:00 36,7 -5,6 8 4 - - WSW 1002,4 16 -
04.06.2020 18:00:00 36,7 -3,3 0 0 - - N 1002,7 16 -
04.06.2020 17:00:00 37,2 -2,8 5 3 - - NE 1003,2 16 0,0
04.06.2020 16:00:00 37,8 -2,8 15 8 - - S 1003,7 16 -
04.06.2020 15:00:00 36,7 -2,2 - - - - - 1004,6 16 -
04.06.2020 14:00:00 36,7 -2,2 8 4 - - - 1005,4 16 -
04.06.2020 13:00:00 35,6 -2,2 9 5 - - - 1006,5 16 -
04.06.2020 12:00:00 34,4 -1,7 13 7 - - N 1007,4 16 -
04.06.2020 11:00:00 32,8 0,0 8 4 - - NNE 1008,5 16 0,0
04.06.2020 10:00:00 30,6 -0,6 9 5 - - NNE 1008,7 16 -
04.06.2020 09:00:00 28,3 0,0 5 3 - - N 1009,1 16 -
04.06.2020 08:00:00 27,8 0,6 8 4 - - N 1009,1 16 -
04.06.2020 07:00:00 25,0 0,6 0 0 - - N 1008,8 16 -
04.06.2020 06:00:00 22,2 1,7 0 0 - - N 1008,8 16 -
04.06.2020 05:00:00 21,7 0,6 0 0 - - N 1008,1 16 0,0
04.06.2020 04:00:00 22,2 0,6 0 0 - - N 1007,6 16 -
04.06.2020 03:00:00 22,8 0,0 0 0 - - N 1007,3 16 -
04.06.2020 02:00:00 25,6 0,0 9 5 - - WSW 1007,0 16 -
04.06.2020 01:00:00 26,7 0,0 9 5 - - SW 1007,3 16 -
04.06.2020 00:00:00 27,2 -0,6 9 5 - - SW 1007,4 16 -
03.06.2020 23:00:00 27,2 0,0 9 5 - - SW 1007,8 16 0,0
03.06.2020 22:00:00 29,4 -1,1 9 5 - - S 1007,6 16 -
03.06.2020 21:00:00 30,0 -0,6 8 4 - - SW 1007,2 16 -
03.06.2020 20:00:00 30,6 1,1 5 3 - - SSW 1006,9 16 -
03.06.2020 19:00:00 33,3 -1,1 0 0 - - N 1006,9 16 -
03.06.2020 18:00:00 33,9 -2,2 8 4 - - - 1007,2 16 -
03.06.2020 17:00:00 35,6 -2,8 13 7 - - N 1007,5 16 0,0
03.06.2020 16:00:00 35,6 -2,8 21 11 - - WNW 1008,0 16 -
03.06.2020 15:00:00 36,1 -2,8 16 9 - - NNW 1008,7 16 -
03.06.2020 14:00:00 36,1 -4,4 15 8 - - NNW 1009,0 16 -
03.06.2020 13:00:00 33,9 -3,3 5 3 - - - 1010,2 16 -
03.06.2020 12:00:00 35,0 -3,3 - - - - - 1010,3 16 -
03.06.2020 11:00:00 32,2 -3,3 8 4 - - W 1011,1 16 0,0
03.06.2020 10:00:00 31,1 -1,1 8 4 - - N 1011,5 16 -
03.06.2020 09:00:00 29,4 0,0 8 4 - - - 1012,0 16 -
03.06.2020 08:00:00 27,2 0,0 0 0 - - N 1012,1 16 -
03.06.2020 07:00:00 24,4 0,0 9 5 - - NW 1011,8 16 -
03.06.2020 06:00:00 23,3 0,0 0 0 - - N 1011,7 16 -
03.06.2020 05:00:00 21,7 -1,7 5 3 - - SE 1011,3 16 0,0
03.06.2020 04:00:00 22,2 0,0 0 0 - - N 1010,8 16 -
03.06.2020 03:00:00 22,8 0,0 0 0 - - N 1010,7 16 -
03.06.2020 02:00:00 24,4 -0,6 0 0 - - N 1010,8 16 -
03.06.2020 01:00:00 25,6 -0,6 0 0 - - N 1011,0 16 -
03.06.2020 00:00:00 27,8 -1,1 8 4 - - W 1011,0 16 -
02.06.2020 23:00:00 28,9 -1,1 9 5 - - W 1010,9 16 0,0
02.06.2020 22:00:00 28,9 -1,1 11 6 - - W 1011,2 16 -
02.06.2020 21:00:00 30,6 -1,7 13 7 - - WNW 1010,5 16 -
02.06.2020 20:00:00 31,7 -3,3 13 7 - - WNW 1009,9 16 -
02.06.2020 19:00:00 33,9 -4,4 13 7 - - WNW 1009,2 16 -
02.06.2020 18:00:00 35,6 -5,6 8 4 - - - 1008,9 16 -
02.06.2020 17:00:00 35,6 -7,2 9 5 - - - 1009,3 16 0,0
02.06.2020 16:00:00 36,7 -6,1 8 4 - - - 1009,3 16 -
02.06.2020 15:00:00 35,6 -5,0 8 4 - - - 1009,9 16 -
02.06.2020 14:00:00 35,6 -4,4 5 3 - - - 1010,8 16 -
02.06.2020 13:00:00 34,4 -4,4 5 3 - - - 1011,5 16 -
02.06.2020 12:00:00 33,3 -3,9 13 7 - - N 1012,3 16 -
02.06.2020 11:00:00 32,8 -2,8 8 4 - - NNE 1012,8 16 0,0
02.06.2020 10:00:00 29,4 -3,3 0 0 - - N 1013,3 16 -
02.06.2020 09:00:00 27,8 -1,7 5 3 - - - 1013,6 16 -
02.06.2020 08:00:00 25,6 0,0 0 0 - - N 1013,5 16 -
02.06.2020 07:00:00 23,9 1,7 8 4 - - SE 1013,4 16 -
02.06.2020 06:00:00 21,1 2,2 9 5 - - SE 1013,0 16 -
02.06.2020 05:00:00 20,0 1,1 9 5 - - SSE 1012,5 16 0,0
02.06.2020 04:00:00 22,8 3,3 0 0 - - N 1011,5 16 -
02.06.2020 03:00:00 23,9 3,3 9 5 - - SW 1011,1 16 -
02.06.2020 02:00:00 23,9 1,7 9 5 - - S 1011,2 16 -
02.06.2020 01:00:00 26,1 -3,9 9 5 - - SSW 1011,1 16 -
02.06.2020 00:00:00 27,8 -3,9 11 6 - - W 1010,7 16 -
01.06.2020 23:00:00 28,9 -3,9 5 3 - - W 1010,4 16 0,0
01.06.2020 22:00:00 29,4 -3,9 5 3 - - - 1009,8 16 -
01.06.2020 21:00:00 31,1 -5,6 9 5 - - WNW 1008,7 16 -
01.06.2020 20:00:00 32,2 -6,1 16 9 - - NW 1007,9 16 -
01.06.2020 19:00:00 32,8 -5,0 8 4 - - WSW 1007,2 16 -
01.06.2020 18:00:00 33,9 -6,7 9 5 - - WSW 1006,8 16 -
01.06.2020 17:00:00 35,0 -7,8 5 3 - - - 1007,0 16 0,0
01.06.2020 16:00:00 35,6 -10,0 21 11 - - S 1007,3 16 -
01.06.2020 15:00:00 36,1 -8,9 18 10 57 31 SW 1007,9 16 -
01.06.2020 14:00:00 35,6 -7,8 18 10 - - SSW 1008,5 16 -
01.06.2020 13:00:00 33,9 -3,9 9 5 - - - 1009,9 16 -
01.06.2020 12:00:00 33,3 -3,9 8 4 - - - 1010,6 16 -
01.06.2020 11:00:00 30,6 -0,6 9 5 - - - 1011,4 16 0,0
01.06.2020 10:00:00 28,3 -2,2 11 6 - - WNW 1011,7 16 -
01.06.2020 09:00:00 26,7 -3,3 8 4 - - NW 1012,1 16 -
01.06.2020 08:00:00 24,4 -1,1 0 0 - - N 1012,2 16 -
01.06.2020 07:00:00 22,8 -1,1 0 0 - - N 1011,7 16 -
01.06.2020 06:00:00 21,7 -3,3 8 4 - - NE 1011,1 16 -
01.06.2020 05:00:00 21,7 -4,4 13 7 - - S 1010,5 16 0,0
01.06.2020 04:00:00 21,1 -5,0 15 8 - - S 1010,4 16 -
01.06.2020 03:00:00 21,7 -4,4 8 4 - - SSW 1009,9 16 -
01.06.2020 02:00:00 22,8 -5,0 8 4 - - SSW 1009,6 16 -
01.06.2020 01:00:00 22,2 -5,0 8 4 - - SE 1009,2 16 -
01.06.2020 00:00:00 23,9 -4,4 8 4 - - S 1008,6 16 -
31.05.2020 23:00:00 26,7 -5,0 5 3 - - SSW 1007,9 16 0,0
31.05.2020 22:00:00 28,9 -5,6 11 6 - - SW 1007,2 16 -
31.05.2020 21:00:00 30,6 -5,0 9 5 - - SW 1006,4 16 -
31.05.2020 20:00:00 31,1 -4,4 11 6 - - SW 1005,9 16 -
31.05.2020 19:00:00 32,8 -5,6 21 11 48 26 SW 1005,6 16 -
31.05.2020 18:00:00 34,4 -1,7 21 11 - - SW 1004,6 16 -
31.05.2020 17:00:00 34,4 1,1 18 10 74 40 SW 1004,7 16 1,5
31.05.2020 16:00:00 34,4 0,6 15 8 - - WSW 1005,3 16 -
31.05.2020 15:00:00 34,4 -2,8 21 11 - - SW 1005,7 16 -
31.05.2020 14:00:00 33,9 0,6 13 7 52 28 S 1006,1 16 -
31.05.2020 13:00:00 34,4 2,2 31 17 - - S 1006,9 16 -
31.05.2020 12:00:00 33,9 2,8 18 10 55 30 SW 1007,5 16 -
31.05.2020 11:00:00 33,3 5,0 22 12 48 26 SSW 1007,9 16 0,0
31.05.2020 10:00:00 33,3 6,1 35 19 48 26 SSE 1008,1 16 -
31.05.2020 09:00:00 31,1 6,1 28 15 - - SSE 1009,0 16 -
31.05.2020 08:00:00 27,8 6,7 5 3 - - - 1009,8 16 -
31.05.2020 07:00:00 23,9 6,7 11 6 - - NNW 1010,0 16 -
31.05.2020 06:00:00 23,3 6,7 8 4 - - N 1009,2 16 -
31.05.2020 05:00:00 23,9 6,1 5 3 - - NNW 1009,3 16 0,0
31.05.2020 04:00:00 22,8 7,2 9 5 - - ENE 1007,9 16 -
31.05.2020 03:00:00 24,4 6,1 8 4 - - W 1007,3 16 -
31.05.2020 02:00:00 25,0 6,1 11 6 - - SSW 1006,9 16 -
31.05.2020 01:00:00 25,6 6,1 8 4 - - S 1006,1 16 -
31.05.2020 00:00:00 26,1 5,6 13 7 - - SSW 1006,3 16 -
30.05.2020 23:00:00 26,7 6,7 15 8 - - SSW 1006,2 16 -
30.05.2020 22:00:00 27,2 8,9 11 6 - - SSW 1006,1 16 -
30.05.2020 21:00:00 28,3 7,2 8 4 - - SW 1005,5 16 -
30.05.2020 20:00:00 27,8 7,8 0 0 - - N 1005,3 16 -
30.05.2020 19:00:00 28,9 8,9 8 4 - - NE 1004,9 16 0,0
30.05.2020 18:00:00 31,1 10,0 11 6 - - N 1005,2 16 0,0
30.05.2020 17:00:00 23,9 14,4 24 13 74 40 S 1007,8 2,8 0,0
30.05.2020 16:00:00 35,0 0,6 11 6 52 28 SW 1004,4 16 -
30.05.2020 15:00:00 31,7 0,0 42 23 85 46 ESE 1006,0 16 0,0
30.05.2020 14:00:00 33,9 -1,7 21 11 - - SSW 1006,1 16 -
30.05.2020 13:00:00 36,1 0,6 8 4 - - - 1006,3 16 -
30.05.2020 12:00:00 33,9 2,8 21 11 - - N 1007,8 16 -
30.05.2020 11:00:00 32,8 3,3 13 7 - - N 1008,8 16 0,0

tt = temperature
td = dewpoint
ff = wind speed
fx = gusts
dd = wind direction
ppp = reduced air pressure
vv = visibility
rr = precipitation

Next stations